GW6775 Weather Reports


time (UTC)temp
C
wind
direction
speed
KPH
gust
KPH
rain 1hr
cm
rain 24hr
cm
rain mn
cm
humidity
%
barometer
mb
20260906214422 31 9 0.0 3.2 0.00 0.00 0.00 32 1014.3
20260906213922 32 183 0.0 4.8 0.00 0.00 0.00 31 1014.5
20260906213416 33 122 3.2 6.4 0.00 0.00 0.00 29 1014.6
20260906212914 33 180 1.6 6.4 0.00 0.00 0.00 29 1014.5
20260906212410 33 188 3.2 4.8 0.00 0.00 0.00 27 1014.6
20260906211909 34 197 6.4 9.7 0.00 0.00 0.00 27 1014.7
20260906211404 34 187 1.6 4.8 0.00 0.00 0.00 27 1014.6
20260906210859 33 18 4.8 8.0 0.00 0.00 0.00 28 1014.6
20260906210354 33 348 3.2 8.0 0.00 0.00 0.00 29 1014.8
20260906205849 33 195 3.2 4.8 0.00 0.00 0.00 30 1014.6
20260906205345 32 144 3.2 6.4 0.00 0.00 0.00 31 1014.7
20260906204841 32 77 3.2 8.0 0.00 0.00 0.00 31 1015.1
20260906204340 32 31 1.6 4.8 0.00 0.00 0.00 31 1014.8
20260906203839 32 33 4.8 4.8 0.00 0.00 0.00 31 1015.1
20260906203335 31 4 3.2 4.8 0.00 0.00 0.00 31 1015.3
20260906202832 32 105 1.6 6.4 0.00 0.00 0.00 31 1015.2
20260906202331 32 28 1.6 3.2 0.00 0.00 0.00 31 1015.2
20260906201831 31 0 1.6 4.8 0.00 0.00 0.00 32 1015.3
20260906201326 31 210 0.0 6.4 0.00 0.00 0.00 32 1015.5
20260906200821 31 3 3.2 4.8 0.00 0.00 0.00 31 1015.3
20260906200318 31 13 3.2 8.0 0.00 0.00 0.00 32 1015.4
20260906195812 31 335 1.6 4.8 0.00 0.00 0.00 32 1015.3
20260906195309 30 248 1.6 3.2 0.00 0.00 0.00 34 1015.4
20260906194805 30 8 3.2 6.4 0.00 0.00 0.00 35 1015.5
20260906194301 30 13 4.8 9.7 0.00 0.00 0.00 34 1015.7
20260906193801 30 9 6.4 6.4 0.00 0.00 0.00 34 1015.9
20260906193255 30 27 0.0 6.4 0.00 0.00 0.00 34 1015.9
20260906192752 29 68 3.2 6.4 0.00 0.00 0.00 35 1016.0
20260906192246 30 8 0.0 6.4 0.00 0.00 0.00 34 1016.1
20260906191745 30 19 3.2 4.8 0.00 0.00 0.00 35 1016.5
20260906191240 29 212 0.0 3.2 0.00 0.00 0.00 35 1016.0
20260906190740 29 9 0.0 4.8 0.00 0.00 0.00 36 1016.2
20260906190234 28 43 3.2 3.2 0.00 0.00 0.00 36 1016.5
20260906185733 28 44 3.2 3.2 0.00 0.00 0.00 37 1016.6
20260906185232 28 22 1.6 4.8 0.00 0.00 0.00 37 1016.6
20260906184727 28 8 1.6 4.8 0.00 0.00 0.00 38 1016.8
20260906184222 27 114 1.6 3.2 0.00 0.00 0.00 37 1017.0
20260906183718 27 311 3.2 3.2 0.00 0.00 0.00 38 1016.8
20260906183215 27 24 0.0 3.2 0.00 0.00 0.00 37 1017.2
20260906182714 27 148 1.6 4.8 0.00 0.00 0.00 38 1017.3
20260906182210 26 100 0.0 3.2 0.00 0.00 0.00 40 1017.6
20260906181705 26 140 1.6 3.2 0.00 0.00 0.00 42 1017.4
20260906181202 26 46 1.6 6.4 0.00 0.00 0.00 42 1017.8
20260906180701 26 36 3.2 4.8 0.00 0.00 0.00 43 1017.9
20260906180156 25 84 0.0 3.2 0.00 0.00 0.00 43 1018.0
20260906175654 25 41 3.2 3.2 0.00 0.00 0.00 44 1018.1
20260906175150 25 53 0.0 3.2 0.00 0.00 0.00 47 1018.0
20260906174648 25 312 3.2 6.4 0.00 0.00 0.00 49 1018.3
20260906174143 24 38 0.0 4.8 0.00 0.00 0.00 49 1018.4
20260906173638 23 23 4.8 4.8 0.00 0.00 0.00 51 1018.4
20260906173134 23 26 3.2 6.4 0.00 0.00 0.00 52 1018.6
20260906172633 23 84 1.6 6.4 0.00 0.00 0.00 50 1018.5
20260906172129 23 40 4.8 6.4 0.00 0.00 0.00 51 1018.7
20260906171628 23 60 0.0 3.2 0.00 0.00 0.00 50 1018.7
20260906171124 23 19 0.0 6.4 0.00 0.00 0.00 51 1018.6
20260906170620 23 139 0.0 4.8 0.00 0.00 0.00 51 1018.7
20260906170119 23 128 1.6 6.4 0.00 0.00 0.00 52 1019.0
20260906165616 23 59 3.2 4.8 0.00 0.00 0.00 52 1019.0
20260906165111 22 60 1.6 3.2 0.00 0.00 0.00 54 1018.9
20260906164610 22 160 0.0 6.4 0.00 0.00 0.00 54 1019.0
20260906164106 22 150 3.2 4.8 0.00 0.00 0.00 55 1019.0
20260906163601 22 118 3.2 3.2 0.00 0.00 0.00 57 1019.1
20260906163057 22 170 0.0 6.4 0.00 0.00 0.00 55 1019.1
20260906162554 22 66 3.2 3.2 0.00 0.00 0.00 58 1019.1
20260906162049 21 45 4.8 6.4 0.00 0.00 0.00 60 1019.1
20260906161544 21 159 4.8 4.8 0.00 0.00 0.00 60 1019.2
20260906161042 21 150 4.8 6.4 0.00 0.00 0.00 60 1019.0
20260906160542 21 144 1.6 6.4 0.00 0.00 0.00 61 1019.2
20260906160040 21 95 1.6 4.8 0.00 0.00 0.00 63 1018.9
20260906155538 21 131 3.2 4.8 0.00 0.00 0.00 63 1019.0
20260906155034 20 51 3.2 4.8 0.00 0.00 0.00 65 1019.2
20260906154529 20 53 3.2 4.8 0.00 0.00 0.00 66 1019.2
20260906154028 20 60 4.8 6.4 0.00 0.00 0.00 67 1019.1
20260906153527 20 34 3.2 4.8 0.00 0.00 0.00 67 1019.2
20260906153022 20 105 3.2 8.0 0.00 0.00 0.00 67 1019.0
20260906152516 20 36 4.8 4.8 0.00 0.00 0.00 68 1019.1
20260906152015 20 38 3.2 4.8 0.00 0.00 0.00 68 1019.1
20260906151512 20 61 3.2 6.4 0.00 0.00 0.00 68 1019.1
20260906151007 20 130 3.2 3.2 0.00 0.00 0.00 69 1019.1
20260906150503 19 117 3.2 6.4 0.00 0.00 0.00 70 1019.1
20260906150002 19 80 3.2 6.4 0.00 0.00 0.00 69 1019.1
20260906145502 19 147 3.2 4.8 0.00 0.00 0.00 69 1019.2
20260906145001 19 69 3.2 6.4 0.00 0.00 0.00 70 1019.1
20260906144456 18 45 3.2 8.0 0.00 0.00 0.00 71 1019.2
20260906143952 18 91 3.2 4.8 0.00 0.00 0.00 72 1019.1
20260906143447 18 167 3.2 6.4 0.00 0.00 0.00 72 1019.0
20260906142943 18 159 3.2 4.8 0.00 0.00 0.00 71 1019.1
20260906142442 18 80 3.2 6.4 0.00 0.00 0.00 73 1019.3
20260906141938 18 132 4.8 6.4 0.00 0.00 0.00 73 1019.1
20260906141432 18 119 3.2 4.8 0.00 0.00 0.00 73 1019.2
20260906140932 18 76 1.6 6.4 0.00 0.00 0.00 73 1019.3
20260906140426 18 81 3.2 6.4 0.00 0.00 0.00 73 1019.3
20260906135924 17 85 3.2 8.0 0.00 0.00 0.00 73 1019.1
20260906135424 17 148 3.2 4.8 0.00 0.00 0.00 71 1019.1
20260906134920 17 110 3.2 4.8 0.00 0.00 0.00 72 1019.1
20260906134415 17 54 3.2 4.8 0.00 0.00 0.00 72 1019.0
20260906133909 17 157 3.2 3.2 0.00 0.00 0.00 74 1019.1
20260906133405 17 106 3.2 4.8 0.00 0.00 0.00 74 1018.9
20260906132901 17 135 3.2 4.8 0.00 0.00 0.00 75 1018.7
20260906132355 17 157 4.8 6.4 0.00 0.00 0.00 76 1018.5
20260906131851 16 161 4.8 6.4 0.00 0.00 0.00 78 1018.6
20260906131347 16 157 4.8 4.8 0.00 0.00 0.00 74 1018.7
20260906130842 16 164 6.4 6.4 0.00 0.00 0.00 73 1018.9
20260906130342 16 164 4.8 6.4 0.00 0.00 0.00 73 1018.7
20260906125841 16 155 4.8 6.4 0.00 0.00 0.00 73 1018.7
20260906125338 16 163 4.8 6.4 0.00 0.00 0.00 72 1018.9
20260906124833 16 116 3.2 4.8 0.00 0.00 0.00 73 1018.7
20260906124329 16 155 3.2 4.8 0.00 0.00 0.00 73 1018.5
20260906123828 16 127 1.6 4.8 0.00 0.00 0.00 73 1018.5
20260906123323 16 149 3.2 4.8 0.00 0.00 0.00 74 1018.6
20260906122823 16 130 3.2 3.2 0.00 0.00 0.00 73 1018.4
20260906122318 16 131 3.2 4.8 0.00 0.00 0.00 74 1018.6
20260906121815 16 129 3.2 4.8 0.00 0.00 0.00 74 1018.3
20260906121311 15 122 3.2 4.8 0.00 0.00 0.00 75 1018.3
20260906120807 15 111 3.2 3.2 0.00 0.00 0.00 75 1018.3
20260906120303 15 148 3.2 4.8 0.00 0.00 0.00 75 1018.3
20260906115758 15 139 3.2 4.8 0.00 0.00 0.00 75 1018.3
20260906115253 15 121 3.2 4.8 0.00 0.00 0.00 74 1018.3
20260906114753 16 132 3.2 4.8 0.00 0.00 0.00 74 1018.1
20260906114248 16 135 4.8 4.8 0.00 0.00 0.00 73 1018.4
20260906113743 16 152 3.2 4.8 0.00 0.00 0.00 72 1018.4
20260906113243 16 134 3.2 4.8 0.00 0.00 0.00 73 1018.1
20260906112742 16 150 3.2 4.8 0.00 0.00 0.00 72 1018.3
20260906112239 16 135 3.2 4.8 0.00 0.00 0.00 72 1018.1
20260906111738 16 148 3.2 4.8 0.00 0.00 0.00 71 1018.1
20260906111233 16 133 3.2 4.8 0.00 0.00 0.00 70 1018.3
20260906110728 16 149 4.8 6.4 0.00 0.00 0.00 70 1018.3
20260906110224 16 158 4.8 6.4 0.00 0.00 0.00 70 1018.1
20260906105722 16 136 3.2 4.8 0.00 0.00 0.00 69 1018.3
20260906105219 16 138 3.2 4.8 0.00 0.00 0.00 69 1018.3
20260906104719 16 172 4.8 6.4 0.00 0.00 0.00 70 1018.4
20260906104218 16 154 3.2 6.4 0.00 0.00 0.00 70 1018.0
20260906103715 16 140 4.8 4.8 0.00 0.00 0.00 70 1018.0
20260906103211 16 149 3.2 4.8 0.00 0.00 0.00 71 1017.9
20260906102706 16 147 3.2 4.8 0.00 0.00 0.00 69 1017.9
20260906102206 17 137 3.2 4.8 0.00 0.00 0.00 69 1017.6
20260906101706 17 98 1.6 4.8 0.00 0.00 0.00 69 1017.9
20260906101201 17 123 3.2 4.8 0.00 0.00 0.00 68 1017.8
20260906100656 17 127 4.8 4.8 0.00 0.00 0.00 70 1018.0
20260906100156 17 161 3.2 4.8 0.00 0.00 0.00 70 1018.0
20260906095651 17 122 3.2 6.4 0.00 0.00 0.00 70 1017.8
20260906095146 17 124 3.2 4.8 0.00 0.00 0.00 68 1017.8
20260906094645 17 145 3.2 4.8 0.00 0.00 0.00 68 1017.8
20260906094141 17 150 3.2 4.8 0.00 0.00 0.00 68 1017.8
20260906093638 17 157 3.2 4.8 0.00 0.00 0.00 68 1017.7
20260906093137 17 132 3.2 4.8 0.00 0.00 0.00 68 1017.9
20260906092632 18 151 3.2 4.8 0.00 0.00 0.00 66 1017.8
20260906092127 18 147 3.2 6.4 0.00 0.00 0.00 64 1017.8
20260906091623 18 173 3.2 4.8 0.00 0.00 0.00 64 1017.8
20260906091120 18 158 3.2 4.8 0.00 0.00 0.00 62 1017.7
20260906090615 18 145 3.2 4.8 0.00 0.00 0.00 62 1017.7
20260906090114 18 173 3.2 6.4 0.00 0.00 0.00 61 1017.7
20260906085613 18 164 4.8 6.4 0.00 0.00 0.00 61 1017.7
20260906085108 18 165 3.2 6.4 0.00 0.00 0.00 63 1017.7
20260906084603 17 142 4.8 4.8 0.00 0.00 0.00 69 1017.8
20260906084101 18 126 3.2 4.8 0.00 0.00 0.00 68 1017.8
20260906083557 17 104 0.0 3.2 0.00 0.00 0.00 71 1017.6
20260906083056 18 150 3.2 3.2 0.00 0.00 0.00 71 1017.7
20260906082552 18 137 3.2 3.2 0.00 0.00 0.00 69 1017.8
20260906082048 18 108 3.2 3.2 0.00 0.00 0.00 69 1017.7
20260906081543 18 150 3.2 3.2 0.00 0.00 0.00 68 1017.9
20260906081039 18 145 3.2 3.2 0.00 0.00 0.00 67 1017.7
20260906080535 18 82 1.6 3.2 0.00 0.00 0.00 67 1018.1
20260906080031 19 121 0.0 3.2 0.00 0.00 0.00 64 1018.0
20260906075531 19 162 3.2 4.8 0.00 0.00 0.00 61 1017.8
20260906075026 20 178 4.8 4.8 0.00 0.00 0.00 60 1017.8
20260906074521 20 180 4.8 6.4 0.00 0.00 0.00 59 1017.8
20260906074019 19 171 3.2 6.4 0.00 0.00 0.00 61 1017.8
20260906073514 19 161 3.2 4.8 0.00 0.00 0.00 63 1017.6
20260906073010 19 167 4.8 4.8 0.00 0.00 0.00 65 1017.6
20260906072505 19 176 6.4 8.0 0.00 0.00 0.00 64 1017.4
20260906072001 19 135 3.2 6.4 0.00 0.00 0.00 63 1017.4
20260906071457 19 153 4.8 4.8 0.00 0.00 0.00 63 1017.2
20260906070952 19 162 3.2 4.8 0.00 0.00 0.00 63 1017.3
20260906070448 19 109 3.2 3.2 0.00 0.00 0.00 63 1017.3
20260906065943 20 141 1.6 3.2 0.00 0.00 0.00 61 1017.3
20260906065437 20 154 3.2 4.8 0.00 0.00 0.00 62 1017.1
20260906064933 20 159 1.6 6.4 0.00 0.00 0.00 60 1017.4
20260906064429 20 135 3.2 4.8 0.00 0.00 0.00 59 1017.4
20260906063924 20 141 4.8 6.4 0.00 0.00 0.00 58 1017.3
20260906063419 20 105 1.6 4.8 0.00 0.00 0.00 56 1017.3
20260906062914 20 59 3.2 6.4 0.00 0.00 0.00 60 1017.2
20260906062414 20 37 8.0 8.0 0.00 0.00 0.00 60 1017.1
20260906061909 20 0 0.0 4.8 0.00 0.00 0.00 60 1017.2
20260906061406 21 44 4.8 6.4 0.00 0.00 0.00 57 1017.2
20260906060900 20 56 1.6 6.4 0.00 0.00 0.00 55 1017.2
20260906060358 20 41 3.2 12.9 0.05 0.00 0.00 56 1017.6
20260906055853 19 33 9.7 14.5 0.48 0.33 0.33 58 1017.3
20260906055349 17 27 9.7 19.3 1.55 0.33 0.33 72 1017.7
20260906054844 18 34 14.5 17.7 1.19 0.25 0.25 72 1017.7
20260906054338 20 48 4.8 12.9 0.23 0.05 0.05 64 1017.7
20260906053835 20 117 3.2 9.7 0.23 0.05 0.05 65 1018.1
20260906053331 22 198 6.4 16.1 0.13 0.03 0.03 50 1018.0
20260906052826 25 190 4.8 8.0 0.05 0.00 0.00 41 1018.0
20260906052322 25 181 3.2 3.2 0.00 0.00 0.00 35 1017.9
20260906051819 25 165 0.0 4.8 0.00 0.00 0.00 33 1017.6
20260906051318 25 96 0.0 6.4 0.00 0.00 0.00 33 1017.7
20260906050814 25 35 0.0 6.4 0.00 0.00 0.00 33 1017.9
20260906050309 25 145 0.0 1.6 0.00 0.00 0.00 33 1017.9
20260906045808 25 154 0.0 4.8 0.00 0.00 0.00 33 1017.8
20260906045305 25 23 0.0 3.2 0.00 0.00 0.00 33 1018.0
20260906044759 25 139 3.2 4.8 0.00 0.00 0.00 34 1017.9
20260906044253 25 144 0.0 3.2 0.00 0.00 0.00 32 1018.0
20260906043749 25 171 3.2 3.2 0.00 0.00 0.00 32 1018.0
20260906043245 25 105 0.0 3.2 0.00 0.00 0.00 31 1018.0
20260906042745 25 60 0.0 3.2 0.00 0.00 0.00 32 1018.0
20260906042244 26 135 0.0 3.2 0.00 0.00 0.00 32 1018.1
20260906041739 26 174 1.6 3.2 0.00 0.00 0.00 31 1018.0
20260906041235 26 75 0.0 3.2 0.00 0.00 0.00 30 1017.9
20260906040731 26 32 0.0 3.2 0.00 0.00 0.00 30 1017.9
20260906040231 26 282 0.0 3.2 0.00 0.00 0.00 30 1017.9
20260906035726 26 310 0.0 3.2 0.00 0.00 0.00 31 1017.9
20260906035222 26 142 3.2 4.8 0.00 0.00 0.00 31 1017.9
20260906034722 25 39 3.2 6.4 0.00 0.00 0.00 31 1017.9
20260906034217 26 199 6.4 6.4 0.00 0.00 0.00 32 1018.0
20260906033713 26 258 0.0 12.9 0.00 0.00 0.00 32 1017.8
20260906033212 26 198 4.8 8.0 0.00 0.00 0.00 30 1017.4
20260906032709 26 5 0.0 1.6 0.00 0.00 0.00 29 1017.1
20260906032209 26 18 0.0 4.8 0.00 0.00 0.00 29 1017.0
20260906031704 27 105 1.6 4.8 0.00 0.00 0.00 29 1016.8
20260906031159 27 47 1.6 6.4 0.00 0.00 0.00 28 1016.7
20260906030700 27 62 0.0 3.2 0.00 0.00 0.00 28 1016.7
20260906030155 27 121 0.0 4.8 0.00 0.00 0.00 28 1016.4
20260906025654 27 19 0.0 4.8 0.00 0.00 0.00 28 1016.5
20260906025153 27 20 3.2 6.4 0.00 0.00 0.00 27 1016.4
20260906024648 27 54 0.0 4.8 0.00 0.00 0.00 27 1016.5
20260906024147 27 14 3.2 6.4 0.00 0.00 0.00 27 1016.5
20260906023643 27 24 4.8 6.4 0.00 0.00 0.00 27 1016.4
20260906023143 28 21 3.2 8.0 0.00 0.00 0.00 28 1016.5
20260906022638 28 28 0.0 3.2 0.00 0.00 0.00 28 1016.2
20260906022134 28 21 3.2 3.2 0.00 0.00 0.00 28 1016.1
20260906021630 27 0 6.4 6.4 0.00 0.00 0.00 28 1016.2
20260906021129 27 15 1.6 3.2 0.00 0.00 0.00 28 1016.2
20260906020628 27 181 3.2 4.8 0.00 0.00 0.00 28 1016.2
20260906020123 27 164 1.6 4.8 0.00 0.00 0.00 28 1016.0
20260906015618 27 173 3.2 6.4 0.00 0.00 0.00 28 1015.9
20260906015117 28 184 3.2 8.0 0.00 0.00 0.00 28 1015.8
20260906014611 28 181 4.8 6.4 0.00 0.00 0.00 27 1015.7
20260906014108 28 199 6.4 6.4 0.00 0.00 0.00 27 1015.8
20260906013603 29 181 3.2 6.4 0.00 0.00 0.00 27 1015.7
20260906013059 30 193 8.0 8.0 0.00 0.00 0.00 25 1015.4
20260906012559 30 197 8.0 8.0 0.00 0.00 0.00 25 1015.7
20260906012059 30 185 4.8 8.0 0.00 0.00 0.00 25 1015.5
20260906011555 31 193 4.8 4.8 0.00 0.00 0.00 24 1015.5
20260906011054 31 167 0.0 6.4 0.00 0.00 0.00 24 1015.3
20260906010550 31 191 6.4 6.4 0.00 0.00 0.00 24 1015.5
20260906010046 31 193 4.8 6.4 0.00 0.00 0.00 24 1015.4
20260906005545 31 195 3.2 8.0 0.00 0.00 0.00 23 1015.4
20260906005044 32 197 9.7 9.7 0.00 0.00 0.00 23 1015.5
20260906004544 32 203 3.2 8.0 0.00 0.00 0.00 22 1015.4
20260906004039 33 212 6.4 9.7 0.00 0.00 0.00 21 1015.5
20260906003534 33 216 1.6 8.0 0.00 0.00 0.00 21 1015.7
20260906003031 34 191 6.4 11.3 0.00 0.00 0.00 20 1015.5
20260906002531 35 190 8.0 11.3 0.00 0.00 0.00 19 1015.4
20260906002025 34 195 3.2 9.7 0.00 0.00 0.00 20 1015.3
20260906001521 36 194 4.8 9.7 0.00 0.00 0.00 17 1015.4
20260906001015 35 193 1.6 8.0 0.00 0.00 0.00 18 1015.4
20260906000511 36 198 6.4 9.7 0.00 0.00 0.00 17 1015.2
20260906000006 36 202 3.2 9.7 0.00 0.00 0.00 17 1015.2
20260905235505 37 194 3.2 8.0 0.00 0.00 0.00 16 1015.4
20260905235000 36 208 6.4 9.7 0.00 0.00 0.00 17 1015.2
20260905234456 35 194 4.8 14.5 0.00 0.00 0.00 17 1015.2
20260905233955 37 204 3.2 14.5 0.00 0.00 0.00 16 1015.4
20260905233452 39 201 3.2 4.8 0.00 0.00 0.00 15 1015.3
20260905232950 38 268 0.0 9.7 0.00 0.00 0.00 16 1015.3
20260905232447 37 202 6.4 9.7 0.00 0.00 0.00 16 1015.3
20260905231942 38 213 6.4 11.3 0.00 0.00 0.00 15 1015.2
20260905231438 38 219 6.4 9.7 0.00 0.00 0.00 15 1015.3
20260905230934 38 196 4.8 9.7 0.00 0.00 0.00 16 1015.2
20260905230432 39 114 3.2 9.7 0.00 0.00 0.00 15 1015.2
20260905225931 38 196 3.2 9.7 0.00 0.00 0.00 17 1015.4
20260905225426 38 199 3.2 9.7 0.00 0.00 0.00 16 1015.2
20260905224921 37 237 0.0 4.8 0.00 0.00 0.00 16 1015.2
20260905224417 37 199 6.4 9.7 0.00 0.00 0.00 16 1015.1
20260905223916 38 205 3.2 3.2 0.00 0.00 0.00 16 1014.9
20260905223415 37 277 0.0 4.8 0.00 0.00 0.00 17 1015.2
20260905222914 36 257 3.2 4.8 0.00 0.00 0.00 17 1015.3
20260905222414 35 321 0.0 4.8 0.00 0.00 0.00 17 1015.3
20260905221910 35 14 6.4 8.0 0.00 0.00 0.00 17 1015.3
20260905221406 35 194 1.6 6.4 0.00 0.00 0.00 17 1015.3
20260905220902 35 175 6.4 14.5 0.00 0.00 0.00 17 1015.3
20260905220358 35 5 6.4 6.4 0.00 0.00 0.00 17 1015.3
20260905215857 33 210 1.6 4.8 0.00 0.00 0.00 19 1015.3
20260905215353 32 353 6.4 14.5 0.00 0.00 0.00 19 1015.4
20260905214849 33 358 6.4 8.0 0.00 0.00 0.00 19 1015.4